Karup, Denmark

7:07 AM CET on December 16, 2017 (GMT +0100)
Karup Air Base

Weather History for EKKA - December, 2012

Change the Weather History Date:

Thursday, December 13, 2012

  Actual Average Record
Temperature  
Mean Temperature 20 °F -  
Max Temperature 28 °F 37 °F 51 °F (2000)
Min Temperature 13 °F 32 °F 13 °F (2012)
Degree Days  
Heating Degree Days 44    
Moisture  
Dew Point 19 °F    
Average Humidity 86    
Maximum Humidity 93    
Minimum Humidity 72    
Precipitation  
Precipitation 0.00 in - - ()
Sea Level Pressure  
Sea Level Pressure 29.94 in    
Wind  
Wind Speed 6 mph ()    
Max Wind Speed 13 mph    
Max Gust Speed -    
Visibility 7.5 miles    
Events      
Averages and records for this station are not official NWS values.
T = Trace of Precipitation, MM = Missing Value Source: Averaged Metar Reports

Daily Weather History Graph

Daily Weather History Graph

Search for Another Location

Airport or City:

Trip Planner

Search our weather history database for the weather conditions in past years. The results will help you decide how hot, cold, wet, or windy it might be!

Date:

Astronomy

Dec. 13, 2012 Rise Set
Actual Time 8:49 AM CET 3:46 PM CET
Civil Twilight 8:01 AM CET 4:34 PM CET
Nautical Twilight 7:11 AM CET 5:23 PM CET
Astronomical Twilight 6:25 AM CET 6:09 PM CET
Moon 8:36 AM CET (12/13) 4:14 PM CET (12/13)
Length of Visible Light 8h 32m
Length of Day
6h 57m
New Moon, 0% of the Moon is Illuminated
Dec 13
New Moon
Dec 20
First Quarter
Dec 28
Full
Jan 5
Last Quarter
Jan 11
New

Hourly Weather History & Observations

Time (CET) Temp. Windchill Dew Point Humidity Pressure Visibility Wind Dir Wind Speed Gust Speed Precip Events Conditions
12:20 AM 14.0 °F 6.5 °F 12.2 °F 93% 30.01 in - ESE 4.6 mph - N/A   Clear
12:50 AM 14.0 °F 6.5 °F 12.2 °F 93% 30.01 in - ESE 4.6 mph - N/A   Clear
1:00 AM 14 °F - 12 °F 87% 30.03 in 6 mi ESE 4.6 mph - -  
1:20 AM 14.0 °F 6.5 °F 12.2 °F 93% 30.01 in - ESE 4.6 mph - N/A   Clear
1:50 AM 15.8 °F 8.6 °F 12.2 °F 86% 30.01 in - ESE 4.6 mph - N/A   Clear
2:20 AM 14.0 °F 8.2 °F 12.2 °F 93% 29.98 in - SE 3.5 mph - N/A   Clear
2:50 AM 15.8 °F 7.2 °F 14.0 °F 93% 29.98 in - SSE 5.8 mph - N/A   Clear
3:20 AM 17.6 °F 10.7 °F 15.8 °F 93% 29.98 in - SE 4.6 mph - N/A   Clear
3:50 AM 17.6 °F 10.7 °F 15.8 °F 93% 29.98 in - SE 4.6 mph - N/A   Clear
4:00 AM 18 °F - 15 °F 85% 30.00 in 6 mi SE 4.6 mph - -   Clear
4:19 AM 17.6 °F 12.3 °F 15.8 °F 93% 29.98 in - SE 3.5 mph - N/A   Clear
4:20 AM 17.6 °F 12.3 °F 15.8 °F 93% 29.98 in - SE 3.5 mph - N/A   Clear
4:50 AM 17.6 °F 10.7 °F 15.8 °F 93% 29.95 in - SE 4.6 mph - N/A   Clear
5:20 AM 17.6 °F 10.7 °F 15.8 °F 93% 29.95 in - SE 4.6 mph - N/A   Clear
5:50 AM 15.8 °F 8.6 °F 14.0 °F 93% 29.95 in - SE 4.6 mph - N/A   Clear
6:20 AM 17.6 °F 12.3 °F 14.0 °F 86% 29.95 in - SE 3.5 mph - N/A   Clear
6:50 AM 17.6 °F 12.3 °F 15.8 °F 93% 29.95 in - SE 3.5 mph - N/A   Clear
7:00 AM 18 °F - 15 °F 84% 29.97 in 6 mi ESE 2.3 mph - -   Clear
7:20 AM 14.0 °F 8.2 °F 10.4 °F 86% 29.95 in - East 3.5 mph - N/A   Clear
7:50 AM 15.8 °F 8.6 °F 14.0 °F 93% 29.95 in - East 4.6 mph - N/A   Clear
8:20 AM 14.0 °F 6.5 °F 12.2 °F 93% 29.95 in - ESE 4.6 mph - N/A   Clear
8:50 AM 14.0 °F 8.2 °F 10.4 °F 86% 29.95 in - ESE 3.5 mph - N/A   Clear
9:20 AM 15.8 °F 10.2 °F 14.0 °F 93% 29.95 in - ESE 3.5 mph - N/A   Clear
9:50 AM 21.2 °F 13.6 °F 17.6 °F 86% 29.95 in - SE 5.8 mph - N/A   Clear
10:00 AM 22 °F - 19 °F 81% 29.97 in 16 mi SE 6.9 mph - -   Scattered Clouds
10:20 AM 23.0 °F 14.7 °F 19.4 °F 86% 29.95 in - SE 6.9 mph - N/A   Clear
10:50 AM 24.8 °F 16.1 °F 21.2 °F 86% 29.95 in - SE 8.1 mph - N/A   Clear
11:20 AM 24.8 °F 16.1 °F 21.2 °F 86% 29.92 in - SE 8.1 mph - N/A   Clear
11:50 AM 26.6 °F 18.2 °F 21.2 °F 80% 29.92 in - SE 8.1 mph - N/A   Clear
12:20 PM 26.6 °F 16.8 °F 21.2 °F 80% 29.92 in - SE 10.4 mph - N/A   Clear
12:50 PM 24.8 °F 15.3 °F 21.2 °F 86% 29.92 in 6.2 mi SE 9.2 mph - N/A   Partly Cloudy
1:00 PM 26 °F - 21 °F 76% 29.95 in 16 mi SE 9.2 mph - -   Partly Cloudy
1:20 PM 26.6 °F 17.5 °F 21.2 °F 80% 29.92 in 6.2 mi SE 9.2 mph - N/A   Scattered Clouds
1:50 PM 26.6 °F 16.2 °F 21.2 °F 80% 29.92 in 6.2 mi ESE 11.5 mph - N/A   Mostly Cloudy
2:20 PM 26.6 °F 16.8 °F 23.0 °F 86% 29.92 in 6.2 mi ESE 10.4 mph - N/A   Mostly Cloudy
2:50 PM 26.6 °F 16.8 °F 23.0 °F 86% 29.92 in 6.2 mi East 10.4 mph - N/A   Mostly Cloudy
3:20 PM 26.6 °F 16.8 °F 23.0 °F 86% 29.89 in 6.2 mi East 10.4 mph - N/A   Mostly Cloudy
3:50 PM 28.4 °F 19.1 °F 23.0 °F 80% 29.92 in 6.2 mi ESE 10.4 mph - N/A   Mostly Cloudy
4:00 PM 28 °F - 22 °F 72% 29.93 in 16 mi ESE 10.4 mph - -   Mostly Cloudy
4:20 PM 28.4 °F 18.5 °F 23.0 °F 80% 29.89 in 6.2 mi ESE 11.5 mph - N/A   Mostly Cloudy
4:50 PM 26.6 °F 16.2 °F 23.0 °F 86% 29.89 in 6.2 mi ESE 11.5 mph - N/A   Mostly Cloudy
5:20 PM 26.6 °F 15.7 °F 23.0 °F 86% 29.89 in 6.2 mi ESE 12.7 mph - N/A   Mostly Cloudy
5:50 PM 26.6 °F 15.7 °F 23.0 °F 86% 29.89 in 6.2 mi East 12.7 mph - N/A   Mostly Cloudy
6:21 PM 26.6 °F 16.2 °F 23.0 °F 86% 29.89 in 6.2 mi ESE 11.5 mph - N/A   Mostly Cloudy
6:50 PM 26.6 °F 17.5 °F 23.0 °F 86% 29.89 in 6.2 mi ESE 9.2 mph - N/A   Mostly Cloudy
7:00 PM 27 °F - 23 °F 79% 29.91 in 16 mi ESE 9.2 mph - -   Mostly Cloudy
7:20 PM 26.6 °F 17.5 °F 23.0 °F 86% 29.89 in 6.2 mi ESE 9.2 mph - N/A   Mostly Cloudy
7:50 PM 26.6 °F 17.5 °F 24.8 °F 93% 29.89 in 6.2 mi ESE 9.2 mph - N/A   Mostly Cloudy
8:20 PM 28.4 °F 19.7 °F 24.8 °F 86% 29.89 in 6.2 mi ESE 9.2 mph - N/A   Mostly Cloudy
8:50 PM 28.4 °F 20.4 °F 24.8 °F 86% 29.89 in 6.2 mi ESE 8.1 mph - N/A   Mostly Cloudy
9:20 PM 28.4 °F 21.2 °F 24.8 °F 86% 29.89 in 6.2 mi ESE 6.9 mph - N/A   Mostly Cloudy
9:50 PM 28.4 °F 21.2 °F 23.0 °F 80% 29.89 in 6.2 mi East 6.9 mph - N/A   Mostly Cloudy
10:00 PM 28 °F - 24 °F 77% 29.91 in 7 mi East 6.9 mph - -   Mostly Cloudy
10:20 PM 28.4 °F 20.4 °F 23.0 °F 80% 29.89 in 6.2 mi East 8.1 mph - N/A   Mostly Cloudy
10:50 PM 26.6 °F 19.1 °F 23.0 °F 86% 29.89 in 6.2 mi ESE 6.9 mph - N/A   Mostly Cloudy
11:20 PM 26.6 °F 20.0 °F 23.0 °F 86% 29.89 in 6.2 mi East 5.8 mph - N/A   Mostly Cloudy
11:50 PM 26.6 °F 20.0 °F 23.0 °F 86% 29.89 in 6.2 mi East 5.8 mph - N/A   Mostly Cloudy